Regional Weather Roundup
Issued by NWS

Home | Current Version | Previous Version | Graphics & Text | Print | Product List | Glossary Off
Versions: 1 2 3 4 5 6 7 8 9 10 11 12 13 14 15 16 17 18 19 20 21 22 23 24 25 26 27 28 29 30 31 32 33 34 35 36 37 38 39 40 41 42 43 44 45 46 47 48 49 50

000
ASUS43 KMKX 202211
RWRWI

WISCONSIN REGIONAL WEATHER ROUNDUP
NATIONAL WEATHER SERVICE MILWAUKEE/SULLIVAN WI
400 PM CST THU NOV 20 2014

NOTE: "FAIR" INDICATES FEW OR NO CLOUDS BELOW 12,000 FEET WITH NO
SIGNIFICANT WEATHER AND/OR OBSTRUCTIONS TO VISIBILITY.

WIZ001-002-006>008-014>016-023>028-202300-
NORTHWEST WISCONSIN

CITY           SKY/WX    TMP DP  RH WIND       PRES   REMARKS
SUPERIOR ARPT  CLEAR     15   1  52 W10       30.12R WCI   3
ASHLAND        MOCLDY    13   2  61 W6        30.08R WCI   4
HAYWARD        CLEAR     14  -1  51 W7        30.07R WCI   4
SIREN          CLEAR     15   0  51 W8        30.13R WCI   3
CUMBERLAND     CLEAR     12  -2  52 W13       30.10R WCI  -3
RICE LAKE      CLEAR     14  -1  51 W8        30.12R WCI   3
CHETEK         CLEAR     13  -1  51 W6        30.11R WCI   4
LADYSMITH      PTCLDY    15   1  55 W8        30.08R WCI   3
EAU CLAIRE     CLEAR     14  -2  49 W8        30.13R WCI   3
MENOMONIE      CLEAR     16  -1  47 W13       30.14R WCI   3
NEW RICHMOND   CLEAR     15   0  51 W12       30.14R WCI   1
OSCEOLA        CLEAR     16   0  50 NW10      30.18R WCI   3
$$

WIZ003>005-009-010-017-018-202300-
NORTH CENTRAL WISCONSIN

CITY           SKY/WX    TMP DP  RH WIND       PRES   REMARKS
MANITOWISH WTR MOCLDY     7  -3  64 W10       29.99R WCI  -8
ARBOR VITAE    CLEAR     10  -1  63 NW7G17    29.99R WCI  -1
WOODRUFF       CLEAR     10  -1  63 NW7G17    29.99R WCI  -1
RHINELANDER    MOCLDY     7  -2  66 W10       29.99R WCI  -8
EAGLE RIVER    PTCLDY     8  -4  58 W10G18    29.97R WCI  -6
LAND O LAKES   MOCLDY     9   0  65 W6G16     29.97R WCI   0
PHILLIPS       PTCLDY    10  -1  63 NW6       30.02R WCI   0
TOMAHAWK       MOCLDY     9   0  65 W10G18    30.02R WCI  -5
MEDFORD        MOCLDY    12   0  60 W10       30.02R WCI  -2
MERRILL        CLOUDY    11   1  62 NW8G17    30.03R WCI   0
$$

WIZ029-030-035-036-043>047-202300-
CENTRAL WISCONSIN

CITY           SKY/WX    TMP DP  RH WIND       PRES   REMARKS
WAUSAU         CLOUDY    13   2  61 NW15      30.03R WCI  -3
MOSINEE        MOCLDY    12   3  67 W14G21    30.04R WCI  -3
MARSHFIELD     CLEAR     14   0  53 W12       30.05R WCI   0
STEVENS POINT  CLOUDY    12  -1  54 W12       30.07R WCI  -2
WAUPACA        PTCLDY    17   1  48 NW10      30.08R WCI   5
WAUTOMA        CLEAR     17   0  47 W12       30.08R WCI   4
WISC RAPIDS    CLEAR     15  -2  46 NW15G25   30.09R WCI   0
CAMP DOUGLAS   CLEAR     17   0  45 W15       30.10R WCI   3
$$

WIZ011>013-019>022-031-037>040-048>050-202300-
NORTHEAST WISCONSIN

CITY           SKY/WX    TMP DP  RH WIND       PRES   REMARKS
ANTIGO         MOCLDY     8  -2  62 NW14      30.00R WCI  -8
SHAWANO        MOCLDY    17   3  55 NW9G16    30.05R WCI   5
OCONTO         CLOUDY    17   2  53 W14G20    30.04R WCI   2
STURGEON BAY   CLOUDY    18   0  45 NW10      30.00R WCI   6
GREEN BAY      MOCLDY    16   4  59 NW13      30.06R WCI   2
MANITOWOC      PTCLDY    16   5  62 NW13      30.06R WCI   2
APPLETON       MOCLDY    16   0  48 NW17      30.05R WCI   0
CLINTONVILLE   CLOUDY    16   5  62 NW10      30.05R WCI   3
OSHKOSH        PTCLDY    17   2  51 NW12      30.06R WCI   4
$$

WIZ032>034-041-042-053>061-202300-
SOUTHWEST WISCONSIN

CITY           SKY/WX    TMP DP  RH WIND       PRES   REMARKS
LA CROSSE      CLEAR     20   3  48 NW14      30.16R WCI   7
SPARTA         CLEAR     18  -1  42 W9        30.13R WCI   7
VIROQUA        CLEAR     17   2  50 NW12      30.10R WCI   4
BOSCOBEL       CLEAR     22   3  44 W7        30.16R WCI  13
PRAIRIE DU CHI CLEAR     20   5  50 W13       30.18R WCI   8
PLATTEVILLE    CLEAR     19   6  56 W17G28    30.15R WCI   4
$$

WIZ056-057-062-063-064-067-068-202300-
SOUTH CENTRAL WISCONSIN

CITY           SKY/WX    TMP DP  RH WIND       PRES   REMARKS
REEDSBURG      CLEAR     19  -1  42 NW12G18   30.10R WCI   6
BARABOO/DELLS  CLEAR     18  -2  41 NW15G21   30.09R WCI   4
LONE ROCK      CLEAR     24  -1  33 NW14      30.13R WCI  12
MINERAL POINT  CLEAR     21   3  45 W16       30.10R WCI   7
MADISON        PTCLDY    21  -2  36 NW13G22   30.09R WCI   9
MIDDLETON      CLEAR     23  -4  29 NW9       30.09R WCI  13
WATERTOWN      CLEAR     21   1  42 W13G21    30.07R WCI   8
MONROE         CLEAR     21   9  58 W20G25    30.10R WCI   6
JANESVILLE     PTCLDY    25   1  36 W16G22    30.10R WCI  12
$$

WIZ051-052-058>065-066-070>072-202300-
SOUTHEAST WISCONSIN

CITY           SKY/WX    TMP DP  RH WIND       PRES   REMARKS
MILWAUKEE      PTCLDY    23  -2  33 NW16G24   30.06R WCI  10
WAUKESHA       CLEAR     21   3  45 W17       30.04S WCI   7
MILWAUKEE/TIMM CLEAR     21  -2  35 W16G25    30.07R WCI   7
RACINE         CLEAR     24   1  36 W12       30.08R WCI  13
BURLINGTON     CLEAR     21  -1  38 W9G16     30.08R WCI  11
KENOSHA        CLEAR     23   2  40 W15G25    30.07R WCI  10
FOND DU LAC    CLEAR     18   1  47 NW14      30.06R WCI   4
SHEBOYGAN      PTCLDY    18   2  49 W16G28    30.04R WCI   3
WEST BEND      CLEAR     21   1  42 W13G18    30.05R WCI   9
JUNEAU         CLEAR     19  -1  42 W9        30.07R WCI   8
$$

LSZ147-162-202300-
LAKE SUPERIOR

STATION/POSITION TIME  TEMP    WIND        PRES    WAVE
                       AIR SEA DIR/SP/G            HT/PER
                 (UTC) (F)     (DEG/KT/KT) (MB)    (FT/S)
DEVILS ISLAND    2200   16     300/ 17/ 20 1019.5R
PORT WING        2100   17     280/ 11/ 17 1018.3
SAXON HARBOR     2140   14     260/  5/ 10 1018.3R
$$

LMZ867-665-643>646-202300-
LAKE MICHIGAN

STATION/POSITION TIME  TEMP    WIND        PRES    WAVE
                       AIR SEA DIR/SP/G            HT/PER
                 (UTC) (F)     (DEG/KT/KT) (MB)    (FT/S)
CHAMBERS ISLAND  2100   19     290/  6/ 14 1014.9R
N MID LAKE BUOY  2150   20 42  290/ 16/ 19 1015.7R   3/ 4
NORTHPORT PIER   2201   20     300/ 15/ 22 1015.6R
SISTER BAY       2113          320/ 17/ 23   N/A
ALGOMA LAKESHORE 2128          270/ 12/ 17   N/A
KEWAUNEE LAKESHO 2100   17     270/ 16/ 19 1015.1R
SHEBOYGAN LAKESH 2200   19 34  290/ 11/ 12 1019.2R
PORT WASHINGTON  2100   22     280/ 12/ 20 1017.9R
ATWATER BUOY     2100   25     260/ 17/ 23 1017.6R
MILWAUKEE LAKESH 2100   23     290/ 18/ 24   N/A
S MID LAKE BUOY  2150   26 43  280/ 19/ 27 1018.5R   5/ 5
KENOSHA   LAKESH 2200   25     280/ 11/ 23 1018.6R
$$

TC  - TEMPERATURE IN CELSIUS
VSB - VISIBILITY IN STATUTE MILES
WCI - WIND CHILL INDEX
HX  - HEAT INDEX




USA.gov is the U.S. government's official web portal to all federal, state and local government web resources and services.